Date_and_time,latitude,longitude,wind_speed,RelWindDirFrom,WindDirFrom,air_pressure,air_temperature,relative_humidity,Temp,platform_speed_wrt_ground,air_pressure_at_mean_sea_level,platform_orientation
2019-04-03 00:00,50.6304433333333,-96.9807733333333,6.7,8.3,73,983.82,-5.6,99,2.04,0.0,1012.08,270.0
2019-04-03 00:10,50.6304433333333,-96.9807716666667,4.6,5.9,78,983.90,-5.7,99,2.04,0.0,1012.09,270.0
2019-04-03 00:20,50.6304416666667,-96.9807733333333,3.9,5.5,68,984.01,-5.6,99,2.04,0.0,1012.22,270.0
2019-04-03 00:30,50.630445,-96.9807733333333,1.2,3.6,68,983.97,-6.1,99,2.02,0.0,1012.26,270.0
2019-04-03 00:40,50.6304466666667,-96.9807716666667,2.0,3.8,147,983.88,-6.7,99,1.98,0.0,1012.22,270.0
2019-04-03 00:50,50.6304466666667,-96.9807683333333,2.4,4.2,127,983.86,-7.0,99,1.98,0.0,1012.25,270.0
2019-04-03 01:00,50.6304466666667,-96.9807716666667,4.3,5.6,119,983.83,-7.1,99,2.00,0.0,1012.21,311.7
2019-04-03 01:10,50.6304466666667,-96.9807716666667,4.0,5.8,141,983.88,-8.1,100,2.02,0.0,1012.23,311.7
2019-04-03 01:20,50.6304616666667,-96.9807883333333,5.8,6.8,167,983.96,-8.6,100,2.03,0.0,1012.27,311.7
2019-04-03 01:30,50.630445,-96.980765,5.9,6.7,169,984.02,-8.4,100,2.05,0.0,1012.42,311.7
2019-04-03 01:40,50.6304416666667,-96.9807666666667,5.6,6.2,179,984.15,-8.2,100,2.06,0.0,1012.61,311.7
2019-04-03 01:50,50.630445,-96.9807666666667,5.3,6.0,176,984.25,-7.9,100,2.03,0.0,1012.72,311.7
2019-04-03 02:00,50.6304383333333,-96.980785,5.1,6.5,182,984.41,-7.6,100,2.01,0.0,1012.88,270.0
2019-04-03 02:10,50.6304633333333,-96.9807883333333,5.0,6.7,187,984.63,-7.2,100,1.99,0.0,1013.08,270.0
2019-04-03 02:20,50.630455,-96.98078,4.9,6.4,189,984.64,-6.9,100,1.98,0.0,1013.10,270.0
2019-04-03 02:30,50.6304483333333,-96.9807733333333,4.3,5.5,194,984.67,-6.9,100,1.96,0.0,1013.16,270.0
2019-04-03 02:40,50.6304466666667,-96.98077,4.0,5.5,204,984.82,-6.6,100,1.95,0.0,1013.31,270.0
2019-04-03 02:50,50.63045,-96.9807683333333,3.1,4.0,209,984.95,-6.2,99,1.96,0.0,1013.43,270.0
2019-04-03 03:00,50.6304483333333,-96.9807666666667,3.4,7.0,220,985.09,-6.0,99,1.96,0.0,1013.62,12.6
2019-04-03 03:10,50.6304216666667,-96.98078,4.3,6.9,302,985.18,-5.1,87,1.96,0.0,1013.70,12.6
2019-04-03 03:20,50.6304366666667,-96.9807733333333,7.0,12.4,303,985.23,-4.3,68,1.95,0.0,1013.68,12.6
2019-04-03 03:30,50.6304433333333,-96.98077,7.2,9.9,313,985.36,-4.2,66,1.95,0.0,1013.81,12.6
2019-04-03 03:40,50.6304433333333,-96.9807683333333,5.6,8.6,315,985.53,-4.4,69,1.94,0.0,1013.97,12.6
2019-04-03 03:50,50.6304566666667,-96.9807883333333,5.1,8.0,311,985.63,-4.6,71,1.94,0.0,1014.07,12.6
2019-04-03 04:00,50.6304216666667,-96.9807633333333,4.8,7.9,303,985.73,-4.8,73,1.95,0.0,1014.16,166.7
2019-04-03 04:10,50.6304316666667,-96.980765,4.5,6.9,292,985.82,-4.9,74,1.95,0.0,1014.25,166.7
2019-04-03 04:20,50.6304366666667,-96.9807633333333,4.9,7.2,292,985.91,-5.0,74,1.95,0.0,1014.35,166.7
2019-04-03 04:30,50.6304383333333,-96.980765,4.9,7.9,293,986.04,-5.2,75,1.95,0.0,1014.47,166.7
2019-04-03 04:40,50.6304383333333,-96.9807666666667,5.4,9.0,290,986.15,-5.3,75,1.92,0.0,1014.57,166.7
2019-04-03 04:50,50.6304366666667,-96.9807866666667,4.4,6.6,285,986.29,-5.4,76,1.91,0.0,1014.71,166.7
2019-04-03 05:00,50.63044,-96.98077,3.8,5.8,283,986.36,-5.6,78,1.91,0.0,1014.74,90.0
2019-04-03 05:10,50.6304383333333,-96.9807766666667,3.8,5.6,282,986.45,-5.7,79,1.92,0.0,1014.80,90.0
2019-04-03 05:20,50.630445,-96.9807716666667,3.2,5.6,282,986.51,-5.8,81,1.94,0.0,1014.86,90.0
2019-04-03 05:30,50.6304466666667,-96.980765,3.5,6.1,279,986.58,-6.0,82,1.95,0.0,1014.95,90.0
2019-04-03 05:40,50.630445,-96.980765,4.1,6.3,283,986.67,-6.0,82,1.95,0.0,1015.06,90.0
2019-04-03 05:50,50.630445,-96.9807666666667,3.8,5.6,272,986.81,-6.2,82,1.95,0.0,1015.22,90.0
2019-04-03 06:00,50.630445,-96.9807683333333,4.2,5.8,267,986.96,-6.3,83,1.95,0.0,1015.39,360.0
2019-04-03 06:10,50.630445,-96.9807666666667,4.5,6.7,265,987.12,-6.4,82,1.95,0.0,1015.56,360.0
2019-04-03 06:20,50.6304466666667,-96.9807666666667,3.9,6.3,274,987.16,-6.5,82,1.94,0.0,1015.61,360.0
2019-04-03 06:30,50.6304483333333,-96.9807783333333,3.7,5.9,274,987.19,-6.6,83,1.94,0.0,1015.66,360.0
2019-04-03 06:40,50.630455,-96.9807733333333,4.2,7.5,267,987.38,-6.6,83,1.94,0.0,1015.86,360.0
2019-04-03 06:50,50.6304516666667,-96.98077,5.2,8.6,271,987.53,-6.6,81,1.94,0.0,1016.02,360.0
2019-04-03 07:00,50.6304516666667,-96.9807683333333,4.9,7.7,280,987.54,-6.5,79,1.93,0.0,1016.04,360.0
2019-04-03 07:10,50.6304516666667,-96.9807683333333,4.7,7.3,271,987.71,-6.6,78,1.93,0.0,1016.22,360.0
2019-04-03 07:20,50.63045,-96.9807683333333,4.7,6.7,262,987.89,-6.7,78,1.93,0.0,1016.43,360.0
2019-04-03 07:30,50.63045,-96.9807666666667,4.4,6.6,254,988.05,-6.7,78,1.93,0.0,1016.60,360.0
2019-04-03 07:40,50.6304483333333,-96.9807666666667,4.8,7.3,256,988.20,-6.8,78,1.93,0.0,1016.76,360.0
2019-04-03 07:50,50.6304483333333,-96.980765,4.2,6.8,243,988.36,-7.0,81,1.92,0.0,1016.94,360.0
2019-04-03 08:00,50.6304483333333,-96.980765,4.5,6.1,245,988.49,-7.1,83,1.92,0.0,1017.09,38.0
2019-04-03 08:10,50.6304483333333,-96.980765,5.2,7.8,259,988.56,-7.0,82,1.92,0.0,1017.16,38.0
2019-04-03 08:20,50.6304466666667,-96.980765,5.7,8.2,258,988.69,-6.9,81,1.92,0.0,1017.30,38.0
2019-04-03 08:30,50.6304466666667,-96.9807633333333,4.8,6.8,251,988.85,-7.0,83,1.92,0.0,1017.46,38.0
2019-04-03 08:40,50.6304466666667,-96.9807633333333,4.7,8.1,255,988.94,-7.0,86,1.91,0.0,1017.55,38.0
2019-04-03 08:50,50.6304466666667,-96.9807633333333,5.0,7.6,257,989.08,-7.0,87,1.91,0.0,1017.70,38.0
2019-04-03 09:00,50.6304466666667,-96.9807633333333,4.1,6.4,251,989.29,-7.1,88,1.91,0.0,1017.92,360.0
2019-04-03 09:10,50.63046,-96.9807916666667,4.7,6.6,252,989.44,-7.2,90,1.91,0.0,1018.08,360.0
2019-04-03 09:20,50.6304566666667,-96.98078,5.4,8.1,254,989.51,-7.2,89,1.91,0.0,1018.16,360.0
2019-04-03 09:30,50.6304533333333,-96.9807716666667,6.3,12.5,263,989.59,-7.0,84,1.91,0.0,1018.24,360.0
2019-04-03 09:40,50.6304516666667,-96.9807683333333,5.3,9.7,263,989.71,-7.1,84,1.92,0.0,1018.37,360.0
2019-04-03 09:50,50.63045,-96.9807683333333,5.5,8.4,265,989.83,-7.1,84,1.91,0.0,1018.51,360.0
2019-04-03 10:00,50.63044,-96.9807783333333,4.9,7.2,275,989.91,-7.2,85,1.91,0.0,1018.59,229.4
2019-04-03 10:10,50.6304433333333,-96.9807466666667,4.9,8.5,277,989.97,-7.3,86,1.91,0.0,1018.65,229.4
2019-04-03 10:20,50.6304466666667,-96.98076,4.8,8.2,273,990.05,-7.5,86,1.91,0.0,1018.74,229.4
2019-04-03 10:30,50.630445,-96.98076,5.0,7.4,267,990.26,-7.7,86,1.91,0.0,1018.97,229.4
2019-04-03 10:40,50.6304483333333,-96.98076,4.5,7.5,275,990.35,-7.8,86,1.92,0.0,1019.07,229.4
2019-04-03 10:50,50.6304433333333,-96.9807333333333,4.5,6.7,274,990.50,-7.9,86,1.91,0.0,1019.24,229.4
2019-04-03 11:00,50.630445,-96.9807483333333,4.5,7.3,269,990.67,-8.0,86,1.92,0.0,1019.42,125.3
2019-04-03 11:10,50.6304466666667,-96.9807566666667,4.3,6.8,261,990.79,-8.1,85,1.92,0.0,1019.55,125.3
2019-04-03 11:20,50.6304466666667,-96.9807583333333,4.4,6.8,262,990.80,-8.1,85,1.92,0.0,1019.55,125.3
2019-04-03 11:30,50.6304466666667,-96.98076,4.2,7.5,248,990.94,-8.2,85,1.91,0.0,1019.70,125.3
2019-04-03 11:40,50.6304483333333,-96.9807583333333,4.7,6.9,245,991.12,-8.4,89,1.92,0.0,1019.90,125.3
2019-04-03 11:50,50.6304233333333,-96.9807833333333,4.6,7.0,264,991.28,-8.3,90,1.91,0.0,1020.07,125.3
2019-04-03 12:00,50.63044,-96.9807783333333,4.5,7.7,278,991.39,-8.3,88,1.91,0.0,1020.19,248.5
2019-04-03 12:10,50.630435,-96.9807733333333,5.2,7.9,279,991.54,-8.2,85,1.91,0.0,1020.35,248.5
2019-04-03 12:20,50.63044,-96.98077,5.1,7.8,278,991.68,-8.1,83,1.91,0.0,1020.49,248.5
2019-04-03 12:30,50.6304416666667,-96.98077,4.9,8.5,272,991.87,-8.2,84,1.92,0.0,1020.70,248.5
2019-04-03 12:40,50.6304416666667,-96.98077,4.0,6.7,263,992.09,-8.2,84,1.91,0.0,1020.93,248.5
2019-04-03 12:50,50.6304416666667,-96.9807683333333,4.7,7.2,278,992.27,-8.0,84,1.91,0.0,1021.11,248.5
2019-04-03 13:00,50.6304416666667,-96.9807666666667,5.4,8.3,278,992.41,-7.8,83,1.90,0.0,1021.25,90.0
2019-04-03 13:10,50.6304416666667,-96.9807666666667,5.5,8.4,285,992.56,-7.6,81,1.90,0.0,1021.40,90.0
2019-04-03 13:20,50.6304416666667,-96.980765,5.9,8.7,290,992.75,-7.5,78,1.89,0.0,1021.58,90.0
2019-04-03 13:30,50.6304416666667,-96.980765,6.7,10.4,297,992.87,-7.4,76,1.89,0.0,1021.72,90.0
2019-04-03 13:40,50.6304416666667,-96.9807666666667,6.8,10.6,290,993.05,-7.3,74,1.89,0.0,1021.90,90.0
2019-04-03 13:50,50.6304416666667,-96.980765,6.7,10.5,297,993.25,-7.0,72,1.89,0.0,1022.08,90.0
2019-04-03 14:00,50.6304416666667,-96.9807666666667,6.4,9.6,298,993.39,-6.7,69,1.89,0.0,1022.20,270.0
2019-04-03 14:10,50.6304416666667,-96.9807666666667,5.7,8.6,313,993.51,-6.5,66,1.89,0.0,1022.32,270.0
2019-04-03 14:20,50.6304416666667,-96.9807666666667,5.5,8.5,299,993.63,-6.3,66,1.88,0.0,1022.43,270.0
2019-04-03 14:30,50.6304416666667,-96.9807666666667,6.0,8.7,290,993.68,-6.0,63,1.86,0.0,1022.47,270.0
2019-04-03 14:40,50.6304416666667,-96.9807683333333,7.3,9.7,293,993.71,-5.8,61,1.85,0.0,1022.48,270.0
2019-04-03 14:50,50.6304433333333,-96.9807683333333,6.1,9.1,293,993.95,-5.6,60,1.83,0.0,1022.71,270.0
2019-04-03 15:00,50.6304433333333,-96.9807683333333,4.9,7.8,284,994.13,-5.3,59,1.83,0.0,1022.85,90.0
2019-04-03 15:10,50.6304433333333,-96.9807683333333,4.8,9.3,298,994.21,-4.9,56,1.83,0.0,1022.91,90.0
2019-04-03 15:20,50.6304433333333,-96.98077,6.0,10.1,306,994.39,-4.6,54,1.83,0.0,1023.07,90.0
2019-04-03 15:30,50.6304433333333,-96.98077,8.5,14.2,316,994.47,-4.5,50,1.82,0.0,1023.15,90.0
2019-04-03 15:40,50.6304433333333,-96.98077,8.7,12.9,289,994.65,-4.5,49,1.83,0.0,1023.31,90.0
2019-04-03 15:50,50.6304433333333,-96.98077,8.5,13.6,304,994.83,-4.6,48,1.82,0.0,1023.49,90.0
2019-04-03 16:00,50.6304433333333,-96.9807666666667,9.5,13.7,300,994.93,-4.3,47,1.81,0.0,1023.57,0.0
2019-04-03 16:10,50.6304433333333,-96.98077,8.9,13.0,319,995.15,-4.3,48,1.82,0.0,1023.78,0.0
2019-04-03 16:20,50.6304466666667,-96.980765,9.8,14.9,304,995.24,-4.1,47,1.82,0.0,1023.85,0.0
2019-04-03 16:30,50.63045,-96.9807666666667,9.1,14.3,311,995.35,-3.8,46,1.83,0.0,1023.93,0.0
2019-04-03 16:40,50.6304316666667,-96.9807516666667,9.8,14.7,302,995.40,-3.7,46,1.83,0.0,1023.97,0.0
2019-04-03 16:50,50.63044,-96.98076,9.0,14.0,305,995.51,-3.5,46,1.82,0.0,1024.05,0.0
2019-04-03 17:00,50.630445,-96.98076,8.8,14.7,316,995.63,-3.2,45,1.83,0.0,1024.14,90.0
2019-04-03 17:10,50.6304483333333,-96.9807633333333,6.3,13.0,335,995.86,-3.7,49,1.83,0.0,1024.38,90.0
2019-04-03 17:20,50.6304466666667,-96.9807616666667,5.2,10.7,355,995.96,-3.7,52,1.83,0.0,1024.49,90.0
2019-04-03 17:30,50.6304466666667,-96.9807616666667,9.1,13.3,42,995.95,-4.7,61,1.83,0.0,1024.53,90.0
2019-04-03 17:40,50.630445,-96.9807616666667,7.6,12.0,68,996.09,-4.5,64,1.83,0.0,1024.67,90.0
2019-04-03 17:50,50.630445,-96.9807616666667,9.0,12.6,68,996.08,-4.6,64,1.83,0.0,1024.65,90.0
2019-04-03 18:00,50.6304433333333,-96.9807616666667,8.8,11.4,70,996.15,-4.0,64,1.83,0.0,1024.68,90.0
2019-04-03 18:10,50.630445,-96.9807633333333,8.3,11.8,74,996.19,-3.8,62,1.83,0.0,1024.71,90.0
2019-04-03 18:20,50.630445,-96.9807666666667,7.0,11.6,68,996.26,-3.6,59,1.83,0.0,1024.75,90.0
2019-04-03 18:30,50.630445,-96.9807666666667,4.0,8.5,73,996.36,-2.7,58,1.83,0.0,1024.80,90.0
2019-04-03 18:40,50.6304516666667,-96.9807783333333,1.6,9.4,144,996.38,-2.9,56,1.83,0.0,1024.82,90.0
2019-04-03 18:50,50.630435,-96.9807716666667,7.7,11.3,100,996.35,-2.2,57,1.83,0.0,1024.73,90.0
2019-04-03 19:00,50.6304566666667,-96.9807783333333,1.8,8.8,76,996.52,-1.6,49,1.83,0.0,1024.90,310.6
2019-04-03 19:10,50.6304466666667,-96.9807666666667,5.7,10.4,306,996.51,-1.8,43,1.84,0.0,1024.90,310.6
2019-04-03 19:20,50.630445,-96.9807616666667,4.4,8.8,302,996.47,-1.5,41,1.84,0.0,1024.90,310.6
2019-04-03 19:30,50.630445,-96.9807633333333,4.0,14.9,67,996.54,-2.1,50,1.84,0.0,1025.00,310.6
2019-04-03 19:40,50.63045,-96.9807966666667,9.3,13.7,73,996.60,-3.2,61,1.85,0.0,1025.12,310.6
2019-04-03 19:50,50.63045,-96.9807633333333,10.1,12.2,94,996.80,-2.4,59,1.86,0.0,1025.25,310.6
2019-04-03 20:00,50.63045,-96.9807666666667,8.9,11.8,91,996.78,-2.3,59,1.86,0.0,1025.22,360.0
2019-04-03 20:10,50.6304483333333,-96.980765,7.4,9.1,91,996.88,-1.9,56,1.87,0.0,1025.28,360.0
2019-04-03 20:20,50.6304533333333,-96.9807866666667,8.0,9.4,97,996.97,-2.0,57,1.87,0.0,1025.33,360.0
2019-04-03 20:30,50.6304516666667,-96.980775,8.4,10.1,94,997.00,-2.0,57,1.87,0.0,1025.37,360.0
2019-04-03 20:40,50.63045,-96.980775,7.7,9.3,103,997.10,-2.3,59,1.87,0.0,1025.45,360.0
2019-04-03 20:50,50.6304483333333,-96.9807733333333,7.4,9.1,105,997.21,-3.0,61,1.87,0.0,1025.57,360.0
2019-04-03 21:00,50.63045,-96.98077,8.3,9.8,104,997.16,-2.8,60,1.87,0.0,1025.53,360.0
2019-04-03 21:10,50.63045,-96.9807683333333,8.1,9.3,104,997.09,-2.8,60,1.88,0.0,1025.44,360.0
2019-04-03 21:20,50.6304533333333,-96.980755,7.9,8.9,110,997.10,-3.2,63,1.89,0.0,1025.50,360.0
2019-04-03 21:30,50.63045,-96.9807666666667,7.2,8.9,104,997.14,-2.9,60,1.91,0.0,1025.58,360.0
2019-04-03 21:40,50.6304516666667,-96.9807666666667,7.2,8.9,111,997.12,-2.7,62,1.92,0.0,1025.51,360.0
2019-04-03 21:50,50.63045,-96.9807666666667,7.3,8.8,113,997.19,-3.4,64,1.92,0.0,1025.62,360.0
2019-04-03 22:00,50.6304483333333,-96.9807666666667,7.0,8.3,124,997.29,-3.5,63,1.94,0.0,1025.70,111.5
2019-04-03 22:10,50.63045,-96.9807683333333,6.9,8.1,114,997.36,-3.4,64,1.95,0.0,1025.78,111.5
2019-04-03 22:20,50.63045,-96.98077,6.1,7.4,99,997.43,-2.5,61,1.95,0.0,1025.80,111.5
2019-04-03 22:30,50.63045,-96.98077,5.8,7.0,120,997.52,-3.0,66,1.96,0.0,1025.93,111.5
2019-04-03 22:40,50.63045,-96.9807683333333,6.4,7.2,118,997.51,-3.5,66,1.97,0.0,1025.99,111.5
2019-04-03 22:50,50.63045,-96.9807683333333,6.1,7.2,102,997.49,-3.1,65,1.98,0.0,1025.93,111.5
2019-04-03 23:00,50.63045,-96.9807683333333,6.3,7.5,93,997.44,-2.4,63,1.99,0.0,1025.85,0.0
2019-04-03 23:10,50.6304516666667,-96.9807683333333,7.2,8.0,101,997.47,-2.8,64,1.99,0.0,1025.93,0.0
2019-04-03 23:20,50.6304516666667,-96.9807666666667,6.0,7.6,98,997.61,-3.4,64,2.00,0.0,1026.08,0.0
2019-04-03 23:30,50.6304516666667,-96.9807666666667,3.8,5.2,73,997.69,-3.5,66,2.01,0.0,1026.16,0.0
